ラーソン彗星

261P/Larson (2012)

English version
Home page
Updated on September 14, 2013

---------------------------------------------------------------------

・ プロフィール

符号 261P/2012 K4
検出日 2012年5月22日
検出光度 20.4等
検出者 N. Howes, G. Sostero, E. Guido ("Faulkes Telescope North" at Haleakala)

・ 写真集

・ 軌道要素

Epoch 2012 Sept. 30.0 TT = JDT 2456200.5
T 2012 Sept. 29.13257 TT                                MPC
q   2.1868683            (2000.0)            P               Q
n   0.14534205     Peri.   58.82118     +0.99431313     +0.04430608
a   3.5826842      Node   298.48055     -0.08296550     +0.89239709
e   0.3896006      Incl.    6.32543     +0.06676913     +0.44907060
P   6.78
From 446 observations 2005 July 3-2012 Dec. 24, mean residual 0".6.

・ 星図

・ 光度変化

        m1 = 2.5 + 5 logΔ + 40.0 log r(t - 40)

---------------------------------------------------------------------

軌道要素はM.P.E.C. 2012-Y30に掲載されたものです。
星図はステラナビゲータ Ver.8 (アストロアーツ) で作成したものです。
光度グラフはComet for Windowsで作成したものです。

---------------------------------------------------------------------

Copyright(C) Seiichi Yoshida (comet@aerith.net). All rights reserved.